User: anonymous   Login
Location: Lawrence Hall of Science
(37.8785°N, 122.2415°W)
Time: 00:56:54
(UTC-07:00)
Language:

Cosmos 2098 Rocket - Orbit

View from above orbital plane
View from above orbital plane
View from above satellite
View from above satellite

Ground track
Ground track

The orbit data is extracted from the following two-line orbital elements,

1 20775U 90078B   16144.09028379  .00004549  00000-0  22667-3 0  9997
2 20775  82.9303   7.3906 0599976 101.8918 265.0160 14.28313636293030
Epoch (UTC): 23 May 2016 02:10:00
Eccentricity: 0.0599976
inclination: 82.9303°
perigee height: 367 km
apogee height: 1228 km
right ascension of ascending node: 7.3906°
argument of perigee: 101.8918°
revolutions per day: 14.28313636
mean anomaly at epoch: 265.0160°
orbit number at epoch: 29303

The dashed part of the orbit path shows where the satellite is in the earth's shadow,  

DLR